User: anonymous   Login
Location: Unspecified
(0.0000°N, 0.0000°E)
Time: 09:21:15
(UTC+02:00)
Language:

Cosmos 1703 - Orbit

View from above orbital plane
View from above orbital plane
View from above satellite
View from above satellite

Ground track
Ground track

The orbit data is extracted from the following two-line orbital elements,

1 16262U 85108A   15210.56388713  .00000899  00000-0  55524-4 0  9990
2 16262 082.4892 205.3608 0009408 105.9497 254.2769 15.08631760615006
Epoch (UTC): 29 July 2015 13:31:59
Eccentricity: 0.0009408
inclination: 82.4892°
perigee height: 534 km
apogee height: 547 km
right ascension of ascending node: 205.3608°
argument of perigee: 105.9497°
revolutions per day: 15.08631760
mean anomaly at epoch: 254.2769°
orbit number at epoch: 61500

The dashed part of the orbit path shows where the satellite is in the earth's shadow,  

DLR